This is the latest recevied weather packets stored in our database for station/object AE5TC. If no packets are shown the sender has not sent any weather packets the latest 10 day(s).
| Time | Temp. | Humidity | Pressure | Rain* | Wind** | Luminosity | Snow |
|---|---|---|---|---|---|---|---|
| 1778075333 | 24.44° C | 92% | 1014.9 hPa | 0 mm | - | 300 W/m² | - |
| 1778075029 | 25° C | 92% | 1014.8 hPa | 0 mm | - | 348 W/m² | - |
| 1778074726 | 25° C | 91% | 1014.8 hPa | 0 mm | - | 421 W/m² | - |
| 1778074423 | 24.44° C | 93% | 1014.7 hPa | 0 mm | - | 176 W/m² | - |
| 1778074119 | 23.89° C | 95% | 1014.7 hPa | 0 mm | - | 376 W/m² | - |
| 1778073817 | 24.44° C | 95% | 1014.6 hPa | 0 mm | - | 257 W/m² | - |
| 1778073515 | 24.44° C | 95% | 1014.5 hPa | 0 mm | - | 290 W/m² | - |
| 1778073211 | 24.44° C | 95% | 1014.4 hPa | 0 mm | - | 215 W/m² | - |
| 1778072908 | 23.89° C | 96% | 1014.2 hPa | 0 mm | - | 255 W/m² | - |
| 1778072604 | 23.89° C | 97% | 1014.3 hPa | 0 mm | - | 203 W/m² | - |
| 1778072302 | 23.33° C | 98% | 1014.2 hPa | 0 mm | - | 179 W/m² | - |
| 1778072000 | 23.33° C | 98% | 1013.9 hPa | 0 mm | - | 143 W/m² | - |
| 1778071699 | 22.78° C | 99% | 1014 hPa | 0 mm | - | 123 W/m² | - |
| 1778071395 | 22.78° C | 99% | 1013.9 hPa | 0 mm | - | 127 W/m² | - |
| 1778071093 | 22.22° C | 99% | 1013.9 hPa | 0 mm | - | 118 W/m² | - |
| 1778070791 | 22.22° C | 99% | 1013.9 hPa | 0 mm | - | 106 W/m² | - |
| 1778070488 | 22.22° C | 99% | 1014 hPa | 0 mm | - | 96 W/m² | - |
| 1778070185 | 21.67° C | 99% | 1013.8 hPa | 0 mm | - | 88 W/m² | - |
| 1778069883 | 21.67° C | 99% | 1013.9 hPa | 0 mm | - | 79 W/m² | - |
| 1778069580 | 21.67° C | 99% | 1013.9 hPa | 0 mm | - | 74 W/m² | - |
| 1778069277 | 21.67° C | 99% | 1013.8 hPa | 0 mm | - | 67 W/m² | - |
| 1778068975 | 21.11° C | 99% | 1013.6 hPa | 0 mm | - | 62 W/m² | - |
| 1778068672 | 21.11° C | 99% | 1013.7 hPa | 0 mm | - | 56 W/m² | - |
| 1778068370 | 20.56° C | 99% | 1013.6 hPa | 0 mm | - | 49 W/m² | - |
| 1778068068 | 19.44° C | 99% | 1013.5 hPa | 0 mm | - | 47 W/m² | - |
* Rain latest hour (hover to see other rain measurements)
** Current wind speed in m/s (hover to see current wind gust speed)